Simultaneous Nadir Overpasses (SNOs) Predictions

Prediction of SNOs between FY3D and AQUA Satellite Orbit:

Table of predicted SNOs for the next 14.0 days since TLE Epoch: 9/28/2019
Index Date (FY3D) Time (FY3D) Lat,Lon (FY3D) SZA (FY3D ) Date (AQUA) Time (AQUA) Lat,Lon (AQUA) SZA (AQUA ) Distance(km) Time Diff (sec)
1 09/29/2019 19:40:30 -70.16, -67.86 74.81 09/29/2019 19:40:41 -70.16, -67.88 74.81 0.66 11
2 09/29/2019 20:30:20 72.91, 104.42 102.37 09/29/2019 20:29:15 72.90, 104.36 102.46 2.24 65
3 10/02/2019 11:57:06 -69.65, 47.25 73.35 10/02/2019 11:57:20 -69.65, 47.29 73.38 1.41 14
4 10/02/2019 12:46:53 72.57,-140.41 103.69 10/02/2019 12:45:51 72.57,-140.42 103.75 0.10 62
5 10/05/2019 04:13:22 -70.13, 163.87 72.90 10/05/2019 04:13:40 -70.13, 163.83 72.90 1.88 18
6 10/05/2019 05:03:25 72.21, -25.22 105.00 10/05/2019 05:02:26 72.22, -25.17 105.05 1.74 59
7 10/07/2019 20:29:55 -69.78, -80.78 71.61 10/07/2019 20:30:16 -69.77, -80.79 71.63 0.48 21
8 10/07/2019 21:19:42 72.68, 91.60 105.46 10/07/2019 21:18:47 72.67, 91.54 105.54 2.10 55
9 10/10/2019 12:46:27 -69.46, 34.66 70.38 10/10/2019 12:46:51 -69.47, 34.67 70.41 0.58 24




NCC Satellite Simultaneous Nadir Overpasses (SNOs) Prediction Service
